Location: Clinton NY
(43.0598°N, 75.3602°W)
Time: 00:24:22
(UTC-04:00)

Iridium 11 - Visible Passes

Search period start: 29 March 2015 00:00
Search period end: 08 April 2015 00:00
Orbit: 776 x 779 km, 86.4° (Epoch: 28 March)

Date Brightness Start Highest point End Pass type
(mag) Time Alt. Az. Time Alt. Az. Time Alt. Az.
29 Mar 6.0 04:05:32 53° ESE 04:06:15 58° E 04:11:23 10° N visible
29 Mar 7.0 05:46:02 16° W 05:47:30 17° WNW 05:50:49 10° NNW visible
30 Mar 6.9 03:32:20 31° E 03:32:51 32° E 03:37:29 10° NNE visible
30 Mar 6.3 05:12:49 29° W 05:13:36 30° WNW 05:18:10 10° NNW visible
31 Mar 7.8 02:59:06 18° E 02:59:33 18° E 03:03:07 10° NE visible
31 Mar 5.6 04:39:35 54° W 04:39:53 54° W 04:45:01 10° N visible
01 Apr 5.4 04:06:19 83° E 04:06:19 83° E 04:11:34 10° N visible
01 Apr 7.3 05:46:47 12° W 05:47:53 12° WNW 05:49:46 10° NW visible
02 Apr 6.4 03:33:02 45° E 03:33:02 45° E 03:37:50 10° NNE visible
02 Apr 6.8 05:13:31 22° W 05:13:54 22° WNW 05:17:49 10° NNW visible
03 Apr 7.3 02:59:45 26° ENE 02:59:45 26° ENE 03:03:47 10° NNE visible
03 Apr 6.1 04:40:13 38° WNW 04:40:13 38° WNW 04:44:55 10° NNW visible
04 Apr 8.0 02:26:25 14° ENE 02:26:25 14° ENE 02:29:05 10° NE visible
04 Apr 5.6 04:06:54 65° NW 04:06:54 65° NW 04:11:38 10° N visible
05 Apr 6.0 03:33:34 59° NE 03:33:34 59° NE 03:38:04 10° N visible
05 Apr 7.2 05:14:03 15° WNW 05:14:15 15° WNW 05:17:11 10° NW visible
06 Apr 6.9 03:00:13 34° ENE 03:00:13 34° ENE 03:04:14 10° NNE visible
06 Apr 6.6 04:40:42 27° WNW 04:40:42 27° WNW 04:44:41 10° NNW visible
07 Apr 7.7 02:26:52 20° ENE 02:26:52 20° ENE 02:29:59 10° NNE visible
07 Apr 6.0 04:07:20 44° NW 04:07:20 44° NW 04:11:36 10° N visible
